EW7993 Greenwood DE US current weather conditions

sailwx.info

Wind from 207 at 3 knots gusting 7

Air temperature 22.8° C
Dewpoint 21.0° C

Last reported at 2020-May-29 02:55 UTC.
Time now 2020-May-29 03:38 UTC

Location: N 38°47' W 075°35'.
View on Google Maps.

See reports from other nearby stations

  
Tides and Currents Weather Stations Pressure Air Temp Water Temp Dewpoint Dewpoint Depression Visibility Wind Speed Wind Dir Waves Ship Positions
date/time (UTC)wind fromknots sea level pressurealtimeterstation pressurevisibilityair tempwater tempwave heightnotes
2020-May-29 03:16 155 4 gusting 6 22.2
2020-May-29 03:10 144 2 gusting 6 22.2
2020-May-29 03:06 160 2 gusting 6 22.8
2020-May-29 03:01 221 2 gusting 6 22.8
2020-May-29 02:55 207 3 gusting 7 22.8
2020-May-29 02:50 224 3 gusting 9 22.8
2020-May-29 02:46 232 4 gusting 9 22.8
2020-May-29 02:40 166 5 gusting 10 22.8
2020-May-29 02:31 158 4 gusting 10 22.8
2020-May-29 02:25 134 6 gusting 11 23.3
2020-May-29 02:20 200 5 gusting 11 23.3
2020-May-29 02:16 197 4 gusting 9 23.3
2020-May-29 02:10 171 4 gusting 9 23.3
2020-May-29 02:05 204 4 gusting 6 23.3
2020-May-29 02:01 155 3 gusting 6 23.3
2020-May-29 01:55 152 2 gusting 6 23.3
2020-May-29 01:50 176 3 gusting 8 23.3
2020-May-29 01:46 146 4 gusting 8 23.3
2020-May-29 01:40 161 3 gusting 7 23.3
2020-May-29 01:31 143 4 gusting 7 23.3
2020-May-29 01:25 153 3 gusting 7 23.3
2020-May-29 01:20 144 4 gusting 9 23.9
2020-May-29 01:17 170 4 gusting 11 23.9
2020-May-29 01:10 184 6 gusting 11 23.9
2020-May-29 01:05 195 6 gusting 9 23.9
2020-May-29 01:01 130 5 gusting 7 23.9
2020-May-29 00:55 130 3 gusting 6 23.9
2020-May-29 00:50 129 3 gusting 6 23.9
2020-May-29 00:46 122 3 gusting 6 23.9
2020-May-29 00:40 155 2 gusting 5 24.4
2020-May-29 00:31 155 2 gusting 5 24.4
2020-May-29 00:25 155 3 gusting 6 24.4
2020-May-29 00:21 201 3 gusting 6 24.4
2020-May-29 00:16 164 1 gusting 4 24.4
2020-May-29 00:10 192 1 gusting 5 24.4
2020-May-29 00:05 136 2 gusting 5 24.4
2020-May-29 00:01 168 1 gusting 4 24.4
2020-May-28 23:55 113 1 gusting 3 24.4
2020-May-28 23:50 096 0 gusting 3 24.4
2020-May-28 23:46 117 1 gusting 2 24.4
2020-May-28 23:40 131 1 gusting 3 25.0
2020-May-28 23:31 181 1 gusting 3 25.0
2020-May-28 23:25 176 1 gusting 4 25.0
2020-May-28 23:20 150 1 gusting 4 25.0
2020-May-28 23:17 157 2 gusting 3 25.0
2020-May-28 23:10 200 1 gusting 5 25.0
2020-May-28 23:06 213 2 gusting 6 25.6
2020-May-28 23:00 174 2 gusting 6 25.6
2020-May-28 22:55 173 3 gusting 6 25.6
2020-May-28 22:50 208 3 gusting 6 25.6
2020-May-28 22:46 216 4 gusting 8 25.6
2020-May-28 22:40 224 6 gusting 13 25.6
2020-May-28 22:30 222 6 gusting 13 25.0
2020-May-28 22:25 207 6 gusting 13 25.0
2020-May-28 22:20 216 6 gusting 14 25.0
2020-May-28 22:16 221 6 gusting 14 25.0
2020-May-28 22:10 235 6 gusting 13 25.0
2020-May-28 22:05 258 9 gusting 13 25.0
2020-May-28 22:01 229 7 gusting 11 25.0
2020-May-28 21:55 256 6 gusting 14 25.0
2020-May-28 21:50 245 7 gusting 18 25.0
2020-May-28 21:46 236 9 gusting 15 25.6
2020-May-28 21:40 248 6 gusting 13 26.1
2020-May-28 21:31 221 6 gusting 13 26.1
2020-May-28 21:25 224 5 gusting 12 26.7
2020-May-28 21:20 215 8 gusting 19 26.7
2020-May-28 21:16 235 8 gusting 19 26.7
2020-May-28 21:10 254 9 gusting 14 26.7
2020-May-28 21:05 234 9 gusting 14 26.7
2020-May-28 21:01 205 6 gusting 11 26.7
2020-May-28 20:55 229 7 gusting 12 26.7
2020-May-28 20:50 172 6 gusting 12 27.2
2020-May-28 20:46 181 5 gusting 8 27.2
2020-May-28 20:40 182 6 gusting 13 27.2
2020-May-28 20:30 205 6 gusting 13 27.2
2020-May-28 20:25 211 6 gusting 13 27.2
2020-May-28 20:20 160 8 gusting 14 27.2
2020-May-28 20:16 162 7 gusting 14 27.2
2020-May-28 20:10 129 7 gusting 13 27.8
2020-May-28 20:05 143 6 gusting 14 27.8
2020-May-28 20:00 225 7 gusting 14 27.8
2020-May-28 19:55 217 8 gusting 15 27.8
2020-May-28 19:50 193 6 gusting 15 27.8
2020-May-28 19:46 171 7 gusting 14 27.8
2020-May-28 19:40 229 6 gusting 13 28.3
2020-May-28 19:31 163 8 gusting 13 28.3
2020-May-28 19:25 147 7 gusting 18 28.3
2020-May-28 19:20 142 9 gusting 19 28.3
2020-May-28 19:15 158 10 gusting 17 27.8
2020-May-28 19:10 164 8 gusting 17 27.8
2020-May-28 19:05 214 9 gusting 17 27.8
2020-May-28 19:00 210 6 gusting 14 27.2
2020-May-28 18:55 217 10 gusting 16 27.2
2020-May-28 18:50 210 10 gusting 16 27.2
2020-May-28 18:45 238 6 gusting 15 27.2
2020-May-28 18:40 183 6 gusting 14 27.2
2020-May-28 18:31 231 8 gusting 15 27.2
2020-May-28 18:25 225 9 gusting 15 27.2
2020-May-28 18:20 195 6 gusting 15 27.2
2020-May-28 18:15 214 8 gusting 20 27.8
2020-May-28 18:10 217 10 gusting 20 27.8
2020-May-28 18:05 175 8 gusting 14 27.8
2020-May-28 18:00 156 6 gusting 13 27.8
2020-May-28 17:55 238 8 gusting 13 27.2
2020-May-28 17:50 217 7 gusting 13 27.2
2020-May-28 17:45 164 7 gusting 13 27.2
2020-May-28 17:40 191 10 gusting 18 26.7
2020-May-28 17:30 210 10 gusting 18 26.7
2020-May-28 17:25 201 7 gusting 14 26.7
2020-May-28 17:15 226 10 gusting 15 26.7
2020-May-28 17:10 220 9 gusting 17 26.7
2020-May-28 17:00 164 9 gusting 13 26.1
2020-May-28 16:55 153 7 gusting 13 25.6
2020-May-28 16:50 211 7 gusting 15 25.6
2020-May-28 16:45 186 8 gusting 15 25.6
2020-May-28 16:40 186 6 gusting 16 25.0
2020-May-28 16:30 198 8 gusting 16 25.0
2020-May-28 16:25 199 8 gusting 16 25.0
2020-May-28 16:20 224 8 gusting 13 25.0
2020-May-28 16:15 194 6 gusting 13 25.0
2020-May-28 16:10 163 7 gusting 13 25.0
2020-May-28 16:05 184 7 gusting 13 25.0
2020-May-28 16:00 159 5 gusting 13 25.0
2020-May-28 15:55 168 7 gusting 17 25.0
2020-May-28 15:50 159 8 gusting 17 25.0
2020-May-28 15:45 166 10 gusting 14 25.0
2020-May-28 15:40 153 12 gusting 20 23.9
2020-May-28 15:30 186 12 gusting 20 23.9
2020-May-28 15:25 187 7 gusting 13 23.9
2020-May-28 15:18 148 6 gusting 18 23.9
2020-May-28 15:11 171 8 gusting 18 23.9
2020-May-28 15:06 169 10 gusting 15 23.3
2020-May-28 15:02 163 7 gusting 15 23.3
2020-May-28 14:55 148 10 gusting 17 23.3
2020-May-28 14:51 159 9 gusting 16 23.9
2020-May-28 14:46 199 8 gusting 16 23.9
2020-May-28 14:40 229 9 gusting 18 23.9
2020-May-28 14:32 200 11 gusting 18 23.3
2020-May-28 14:26 174 11 gusting 20 23.3
2020-May-28 14:20 167 13 gusting 20 23.3
2020-May-28 14:17 203 7 gusting 15 23.3
2020-May-28 14:10 165 9 gusting 15 23.3
2020-May-28 14:05 154 7 gusting 13 23.3
2020-May-28 14:02 157 6 gusting 13 23.3
2020-May-28 13:55 148 9 gusting 18 23.3
2020-May-28 13:50 169 9 gusting 18 22.8
2020-May-28 13:47 197 6 gusting 12 22.8
2020-May-28 13:40 136 7 gusting 12 22.8
2020-May-28 13:31 139 6 gusting 13 22.8
2020-May-28 13:25 150 6 gusting 12 22.8
2020-May-28 13:20 150 6 gusting 12 22.8
2020-May-28 13:16 193 6 gusting 13 22.8
2020-May-28 13:10 152 6 gusting 13 22.8
2020-May-28 13:05 174 7 gusting 13 22.2
2020-May-28 13:00 158 6 gusting 13 22.2
2020-May-28 12:55 181 6 gusting 14 22.2
2020-May-28 12:50 143 7 gusting 14 22.2
2020-May-28 12:46 138 7 gusting 13 22.2
2020-May-28 12:40 141 6 gusting 14 22.2
2020-May-28 12:30 155 7 gusting 12 21.7
2020-May-28 12:25 134 6 gusting 13 21.7
2020-May-28 12:20 148 8 gusting 13 21.7
2020-May-28 12:16 148 6 gusting 12 21.7
2020-May-28 12:10 137 6 gusting 15 21.7
2020-May-28 12:05 133 7 gusting 16 21.7
2020-May-28 12:00 162 7 gusting 16 21.7
2020-May-28 11:55 139 6 gusting 13 21.7
2020-May-28 11:50 161 7 gusting 15 21.7
2020-May-28 11:45 157 9 gusting 15 21.1
2020-May-28 11:40 160 7 gusting 14 21.1
2020-May-28 11:30 158 6 gusting 12 21.1
2020-May-28 11:26 150 6 gusting 12 21.1
2020-May-28 11:20 129 6 gusting 12 21.1
2020-May-28 11:15 123 6 gusting 12 21.1
2020-May-28 11:10 156 6 gusting 13 21.1
2020-May-28 11:05 113 6 gusting 11 21.1
2020-May-28 11:00 138 6 gusting 11 21.1
2020-May-28 10:55 137 6 gusting 11 21.1
2020-May-28 10:50 155 6 gusting 11 20.6
2020-May-28 10:45 138 5 gusting 9 20.6
2020-May-28 10:40 146 4 gusting 9 20.6
2020-May-28 10:30 131 5 gusting 9 20.6
2020-May-28 10:25 184 5 gusting 8 20.6
2020-May-28 10:20 131 4 gusting 9 20.6
2020-May-28 10:15 164 6 gusting 9 20.6
2020-May-28 10:10 141 6 gusting 9 20.6
2020-May-28 10:05 125 6 gusting 9 20.6
2020-May-28 09:55 120 5 gusting 8 20.6
2020-May-28 09:50 120 5 gusting 7 20.6
2020-May-28 09:45 123 5 gusting 7 20.6
2020-May-28 09:30 146 4 gusting 8 20.6
2020-May-28 09:25 148 4 gusting 6 20.6
2020-May-28 09:15 177 4 gusting 7 20.6
2020-May-28 09:10 150 3 gusting 8 20.6
2020-May-28 09:00 129 3 gusting 7 20.6
2020-May-28 08:50 125 3 gusting 6 20.6
2020-May-28 08:45 139 4 gusting 7 20.6
2020-May-28 08:40 109 5 gusting 7 20.6
2020-May-28 08:30 144 4 gusting 11 20.6
2020-May-28 08:25 136 6 gusting 11 20.6
2020-May-28 08:20 166 3 gusting 7 20.6
2020-May-28 08:10 140 3 gusting 9 20.6
2020-May-28 08:05 163 4 gusting 9 20.6
2020-May-28 07:55 134 2 gusting 6 20.6
2020-May-28 07:50 143 3 gusting 6 20.6
2020-May-28 07:45 141 4 gusting 6 20.6
2020-May-28 07:40 146 4 gusting 7 20.6
2020-May-28 07:30 139 6 gusting 11 20.6
2020-May-28 07:25 142 6 gusting 9 20.6
2020-May-28 07:20 134 4 gusting 7 20.6
2020-May-28 07:15 167 4 gusting 7 20.6
2020-May-28 07:10 136 4 gusting 6 20.6
2020-May-28 07:05 166 4 gusting 6 20.6
2020-May-28 07:00 167 3 gusting 6 20.6
2020-May-28 06:55 137 3 gusting 8 20.6
2020-May-28 06:50 148 4 gusting 9 20.6
2020-May-28 06:40 165 2 gusting 6 20.6
2020-May-28 06:31 154 2 gusting 7 20.6
2020-May-28 06:25 169 3 gusting 7 20.6
2020-May-28 06:20 138 4 gusting 7 20.6
2020-May-28 06:15 151 4 gusting 7 20.6
2020-May-28 06:10 142 5 gusting 8 20.6
2020-May-28 06:05 157 5 gusting 8 20.6
2020-May-28 06:00 141 4 gusting 7 20.6
2020-May-28 05:55 150 5 gusting 7 20.6
2020-May-28 05:50 153 4 gusting 8 20.6
2020-May-28 05:45 184 5 gusting 8 20.6
2020-May-28 05:40 163 4 gusting 7 20.6
2020-May-28 05:30 139 3 gusting 7 20.6
2020-May-28 05:25 131 4 gusting 6 20.6
2020-May-28 05:20 186 4 gusting 8 20.6
2020-May-28 05:10 167 2 gusting 6 20.6
2020-May-28 05:05 171 4 gusting 7 20.6
2020-May-28 05:00 198 5 gusting 9 20.6
2020-May-28 04:55 179 3 gusting 6 20.6
2020-May-28 04:50 211 2 gusting 8 20.6
2020-May-28 04:41 160 5 gusting 7 20.6
2020-May-28 04:26 182 3 gusting 6 20.0
2020-May-28 04:21 191 1 gusting 6 20.0
2020-May-28 04:17 177 2 gusting 6 20.0
2020-May-28 04:10 174 1 gusting 5 20.0
2020-May-28 04:05 156 1 gusting 3 20.0
2020-May-28 04:02 132 1 gusting 3 20.0
2020-May-28 03:55 151 1 gusting 3 20.0
2020-May-28 03:50 139 0 gusting 3 20.0
2020-May-28 03:46 137 0 gusting 3 20.0
2020-May-28 03:40 165 0 gusting 4 20.0
2020-May-28 03:25 133 2 gusting 6 20.0
2020-May-28 03:21 141 3 gusting 8 20.0
2020-May-28 03:16 155 5 gusting 8 20.0
2020-May-28 03:10 157 4 gusting 7 20.0
2020-May-28 03:05 146 4 gusting 6 20.0
2020-May-28 03:02 136 4 gusting 7 20.0
2020-May-28 02:55 141 5 gusting 7 20.0
2020-May-28 02:50 157 4 gusting 7 20.0
2020-May-28 02:47 193 3 gusting 6 20.0
2020-May-28 02:25 155 5 gusting 9 20.0
2020-May-28 02:20 160 4 gusting 9 20.6
2020-May-28 02:16 109 4 gusting 8 20.6
2020-May-28 02:11 129 5 gusting 8 20.6
2020-May-28 02:05 134 4 gusting 8 20.6
2020-May-28 02:02 126 5 gusting 8 20.6
2020-May-28 01:56 157 5 gusting 6 20.6
2020-May-28 01:50 138 3 gusting 6 20.6
2020-May-28 01:46 141 3 gusting 5 20.6
2020-May-28 01:41 192 2 gusting 5 20.6
2020-May-28 01:26 118 3 gusting 7 21.1
2020-May-28 01:20 169 3 gusting 7 21.1
2020-May-28 01:18 136 2 gusting 7 21.1
2020-May-28 01:10 096 3 gusting 7 21.1
2020-May-28 01:05 146 3 gusting 7 21.1
2020-May-28 01:02 121 3 gusting 7 21.7
2020-May-28 00:55 145 4 gusting 7 21.7
2020-May-28 00:50 132 4 gusting 6 21.7
2020-May-28 00:46 136 4 gusting 6 21.7
2020-May-28 00:40 110 4 gusting 6 21.7
2020-May-28 00:25 117 5 gusting 8 22.2
2020-May-28 00:20 129 4 gusting 10 22.2
2020-May-28 00:18 105 5 gusting 10 22.2
2020-May-28 00:11 116 5 gusting 9 22.8
2020-May-28 00:05 131 5 gusting 10 22.8
2020-May-28 00:02 127 5 gusting 10 22.8
2020-May-27 23:55 127 5 gusting 10 22.8
2020-May-27 23:50 114 6 gusting 9 23.3
2020-May-27 23:47 160 5 gusting 12 23.3
2020-May-27 23:40 127 6 gusting 12 23.3
2020-May-27 23:25 096 8 gusting 12 23.9
2020-May-27 23:21 124 6 gusting 13 23.9
2020-May-27 23:16 102 7 gusting 13 24.4
2020-May-27 23:10 117 6 gusting 11 24.4
2020-May-27 23:05 155 7 gusting 12 24.4
2020-May-27 23:02 153 5 gusting 13 24.4
2020-May-27 22:55 123 6 gusting 13 24.4
2020-May-27 22:50 101 7 gusting 13 24.4
2020-May-27 22:46 095 7 gusting 12 24.4
2020-May-27 22:40 132 5 gusting 12 24.4
2020-May-27 22:25 193 6 gusting 14 24.4
2020-May-27 22:20 120 9 gusting 13 25.0
2020-May-27 22:16 111 7 gusting 13 25.0
2020-May-27 22:11 150 9 gusting 15 25.0
2020-May-27 22:06 147 7 gusting 15 25.0
2020-May-27 22:02 105 9 gusting 15 25.0
2020-May-27 21:56 098 7 gusting 13 25.0
2020-May-27 21:50 137 6 gusting 13 25.0
2020-May-27 21:46 120 8 gusting 13 25.0
2020-May-27 21:40 143 7 gusting 14 25.0
2020-May-27 21:25 158 6 gusting 11 25.0
2020-May-27 21:21 120 6 gusting 10 25.0
2020-May-27 21:16 115 5 gusting 11 25.0
2020-May-27 21:10 134 6 gusting 14 25.0
2020-May-27 21:05 143 8 gusting 14 25.6
2020-May-27 21:01 122 11 gusting 13 25.6
2020-May-27 20:55 130 6 gusting 11 25.6
2020-May-27 20:50 106 6 gusting 12 25.0
2020-May-27 20:46 131 6 gusting 13 25.0
2020-May-27 20:41 101 8 gusting 13 25.0
2020-May-27 20:25 134 7 gusting 14 25.0
2020-May-27 20:20 121 7 gusting 14 25.0
2020-May-27 20:16 101 8 gusting 14 25.0
2020-May-27 20:10 112 8 gusting 14 24.4
2020-May-27 20:05 115 10 gusting 15 25.0
2020-May-27 20:01 086 10 gusting 15 25.0
2020-May-27 19:50 115 9 gusting 16 25.0
2020-May-27 19:47 110 9 gusting 14 25.6
2020-May-27 19:40 120 9 gusting 14 25.6
2020-May-27 19:26 080 7 gusting 12 25.0
2020-May-27 19:20 120 6 gusting 12 25.6
2020-May-27 19:16 130 6 gusting 13 26.1
2020-May-27 19:10 135 4 gusting 9 25.6
2020-May-27 19:05 101 3 gusting 11 25.6
2020-May-27 19:01 061 6 gusting 12 25.6
2020-May-27 18:55 095 7 gusting 12 25.6
2020-May-27 18:51 099 6 gusting 11 25.6
2020-May-27 18:46 150 6 gusting 12 25.6
2020-May-27 18:40 148 6 gusting 12 25.0
2020-May-27 18:25 097 6 gusting 11 25.0
2020-May-27 18:20 159 6 gusting 11 25.0
2020-May-27 18:15 121 5 gusting 12 24.4
2020-May-27 18:10 143 8 gusting 12 24.4
2020-May-27 18:05 102 7 gusting 13 24.4
2020-May-27 18:01 111 9 gusting 13 24.4
2020-May-27 17:55 115 9 gusting 13 24.4
2020-May-27 17:50 110 6 gusting 12 24.4
2020-May-27 17:46 064 6 gusting 13 25.0
2020-May-27 17:40 135 7 gusting 13 25.0
2020-May-27 17:25 153 5 gusting 9 25.0
2020-May-27 17:20 075 5 gusting 12 25.0
2020-May-27 17:10 089 6 gusting 9 25.0
2020-May-27 17:05 075 6 gusting 13 25.0
2020-May-27 17:00 090 8 gusting 13 25.0
2020-May-27 16:55 131 6 gusting 12 25.0
2020-May-27 16:50 084 6 gusting 11 24.4
2020-May-27 16:45 126 6 gusting 12 25.0
2020-May-27 16:40 080 6 gusting 12 24.4
2020-May-27 16:25 123 5 gusting 10 24.4
2020-May-27 16:20 122 6 gusting 10 24.4
2020-May-27 16:16 117 5 gusting 13 23.9
2020-May-27 16:10 127 7 gusting 13 23.9
2020-May-27 16:05 103 6 gusting 11 23.9
2020-May-27 16:00 090 6 gusting 11 23.9
2020-May-27 15:55 075 4 gusting 11 23.9
2020-May-27 15:50 078 4 gusting 12 23.9
2020-May-27 15:45 111 6 gusting 12 23.9
2020-May-27 15:40 129 7 gusting 11 23.9
2020-May-27 15:25 128 6 gusting 12 23.9
2020-May-27 15:20 116 6 gusting 10 23.9
2020-May-27 15:15 134 4 gusting 11 23.9
2020-May-27 15:10 149 6 gusting 13 23.3
2020-May-27 15:05 110 8 gusting 13 23.3
2020-May-27 15:00 077 4 gusting 7 22.8
2020-May-27 14:50 134 3 gusting 11 22.8
2020-May-27 14:45 097 6 gusting 11 22.8
2020-May-27 14:40 055 5 gusting 9 22.2
2020-May-27 14:25 063 3 gusting 7 22.2
2020-May-27 14:20 134 4 gusting 7 21.7
2020-May-27 14:15 073 2 gusting 7 21.7
2020-May-27 14:10 070 2 gusting 7 21.1
2020-May-27 14:05 075 3 gusting 6 21.1
2020-May-27 13:55 073 2 gusting 6 20.6
2020-May-27 13:45 049 2 gusting 5 20.0
2020-May-27 13:40 065 1 gusting 6 19.4
2020-May-27 13:26 060 2 gusting 5 18.9
2020-May-27 13:21 103 2 gusting 5 18.3
2020-May-27 13:16 092 2 gusting 5 17.8
2020-May-27 13:10 075 3 gusting 6 17.8
2020-May-27 13:05 070 3 gusting 6 17.2
2020-May-27 13:01 068 3 gusting 6 17.2
2020-May-27 12:55 070 4 gusting 6 17.2
2020-May-27 12:51 091 3 gusting 5 17.2
2020-May-27 12:47 058 1 gusting 7 16.7
2020-May-27 12:40 059 3 gusting 7 16.7
2020-May-27 12:25 059 1 gusting 6 15.6
2020-May-27 12:20 069 3 gusting 6 15.6
2020-May-27 12:16 082 2 gusting 5 15.6
2020-May-27 12:10 051 1 gusting 5 15.6
2020-May-27 12:05 079 3 gusting 5 15.0
2020-May-27 12:01 077 3 gusting 5 15.0
2020-May-27 11:55 064 3 gusting 6 15.0
2020-May-27 11:51 068 2 gusting 5 15.0
2020-May-27 11:46 070 2 gusting 5 15.0
2020-May-27 11:40 059 1 gusting 4 15.0
2020-May-27 11:25 075 2 gusting 5 14.4
2020-May-27 11:21 060 3 gusting 5 14.4
2020-May-27 11:16 054 1 gusting 3 14.4
2020-May-27 11:10 063 1 gusting 3 14.4
2020-May-27 11:05 063 2 gusting 3 14.4
2020-May-27 11:01 069 1 gusting 2 14.4
2020-May-27 10:55 112 0 gusting 2 14.4
2020-May-27 10:50 131 0 gusting 2 14.4
2020-May-27 10:46 070 0 gusting 2 14.4
2020-May-27 10:25 072 14.4
2020-May-27 10:20 068 13.9
2020-May-27 10:16 071 0 gusting 2 13.9
2020-May-27 10:11 070 0 gusting 1 13.9
2020-May-27 10:05 070 13.9
2020-May-27 10:01 067 13.9
2020-May-27 09:55 082 13.9
2020-May-27 09:50 077 13.9
2020-May-27 09:46 083 13.9
2020-May-27 09:40 073 13.9
2020-May-27 09:25 073 13.9
2020-May-27 09:20 079 13.9
2020-May-27 09:16 079 13.9
2020-May-27 09:10 072 13.9
2020-May-27 09:05 072 13.9
2020-May-27 09:01 072 13.9
2020-May-27 08:55 096 13.9
2020-May-27 08:51 095 13.9
2020-May-27 08:46 104 0 gusting 1 13.9
2020-May-27 08:40 123 13.9
2020-May-27 08:25 112 0 gusting 1 13.9
2020-May-27 08:20 073 13.9
2020-May-27 08:16 073 13.9
2020-May-27 08:10 070 0 gusting 2 13.9
2020-May-27 08:05 065 1 gusting 2 13.9
2020-May-27 08:01 058 0 gusting 2 13.9
2020-May-27 07:55 056 0 gusting 2 13.9
2020-May-27 07:50 084 13.9
2020-May-27 07:46 080 13.9
2020-May-27 07:40 072 14.4
2020-May-27 07:25 070 0 gusting 2 14.4
2020-May-27 07:20 076 0 gusting 2 14.4
2020-May-27 07:16 078 14.4
2020-May-27 07:10 117 14.4
2020-May-27 07:05 117 14.4
2020-May-27 07:00 154 14.4
2020-May-27 06:55 119 0 gusting 1 14.4
2020-May-27 06:50 077 0 gusting 1 14.4
2020-May-27 06:46 074 14.4
2020-May-27 06:40 127 0 gusting 3 14.4
2020-May-27 06:25 105 1 gusting 3 14.4
2020-May-27 06:20 112 14.4
2020-May-27 06:16 096 0 gusting 2 14.4
2020-May-27 06:10 092 0 gusting 3 14.4
2020-May-27 06:05 105 2 gusting 4 14.4
2020-May-27 06:01 098 2 gusting 5 14.4
2020-May-27 05:55 118 2 gusting 5 14.4
2020-May-27 05:50 154 0 gusting 2 14.4
2020-May-27 05:46 124 1 gusting 4 14.4
2020-May-27 05:40 151 1 gusting 4 14.4
2020-May-27 05:25 105 1 gusting 4 15.0
2020-May-27 05:20 113 1 gusting 4 15.0
2020-May-27 05:15 108 1 gusting 4 15.0
2020-May-27 05:10 083 1 gusting 4 15.0
2020-May-27 05:05 086 1 gusting 4 15.0
2020-May-27 05:00 107 2 gusting 4 15.0
2020-May-27 04:55 120 2 gusting 4 15.0
2020-May-27 04:50 113 2 gusting 4 15.0
2020-May-27 04:40 064 1 gusting 5 15.0
2020-May-27 04:25 120 1 gusting 5 15.0
2020-May-27 04:20 108 4 gusting 5 15.0
2020-May-27 04:15 091 2 gusting 4 15.6
2020-May-27 04:10 121 1 gusting 4 15.6
2020-May-27 04:05 115 3 gusting 6 15.6
2020-May-27 04:00 135 3 gusting 6 15.6
2020-May-27 03:55 096 3 gusting 6 15.6
2020-May-27 03:50 099 3 gusting 6 15.6
2020-May-27 03:47 117 2 gusting 5 15.6
2020-May-27 03:40 096 3 gusting 5 15.6
2020-May-27 03:25 109 2 gusting 5 15.6
2020-May-27 03:20 096 3 gusting 6 15.6
2020-May-27 03:16 103 3 gusting 6 16.1
2020-May-27 03:10 107 3 gusting 5 16.1
2020-May-27 03:05 100 1 gusting 2 16.1
2020-May-27 03:01 075 0 gusting 2 16.1